[[{"header":{"parameterUnit":"m.s-1","parameterCategory":1,"la1":30.2991,"la2":30.254,"lo1":-89.0895,"lo2":-89.0444,"dy":0.0017,"dx":0.0017,"nx":28,"ny":28,"refTime":"2025-06-02T03:00:00:Z","depth":0,"parameterNumber":2,"parameterNumberName":"U-component_of_WINDS"},"data":[0,0,0,0,0,0,0,0,0,0,0,0,0,0,0,0,0,0,0,0,0,0,0,0,0,0,0,0,0,0,0,0,0,0,0,0,0,0,0,0,0,0,0,0,0,0,0,0,0,0,0,0,0,0,0,0,0,0,-4.6662,-4.6661,0,-4.6591,-4.659,-4.6589,-4.6355,-4.635,-4.6344,-4.6339,-4.6272,-4.6275,-4.6278,0,0,0,0,0,0,0,0,0,0,0,0,0,-4.66,-4.6603,-4.6662,-4.6661,-4.666,-4.6591,-4.659,-4.6589,-4.6356,-4.6349,-4.6343,-4.6337,-4.6271,-4.6274,-4.6278,0,0,0,0,0,0,0,0,0,0,0,0,0,-4.6588,-4.6604,-4.6662,-4.6535,-4.6523,-4.6591,-4.659,-4.6589,-4.6357,-4.6349,-4.6341,-4.6334,-4.6269,-4.6274,-4.6278,-4.6465,0,0,-4.6293,-4.6295,0,0,0,0,0,0,0,0,-4.6589,-4.6591,-4.6555,-4.6544,-4.6531,-4.6473,-4.6543,-4.6547,-4.6359,-4.642,-4.6339,-4.633,-4.6345,-4.6343,-4.6347,-4.6461,-4.6458,-4.6293,-4.6296,-4.6298,-4.6299,0,0,0,0,0,0,0,-4.659,-4.6593,-4.6634,-4.6555,-4.654,-4.6484,-4.6473,-4.6543,-4.6428,-4.6414,-4.6397,-4.6392,-4.6337,-4.6344,-4.6344,-4.6457,-4.6293,-4.6297,-4.63,-4.6302,-4.672,-4.6728,0,0,0,0,0,0,-4.6609,-4.6595,-4.6636,-4.6632,-4.6541,-4.6491,-4.6479,-4.65,-4.6427,-4.6408,-4.6399,-4.6381,-4.6339,-4.6339,-4.6341,-4.6552,-4.6298,-4.6302,-4.6305,-4.6712,-4.6722,-4.6731,0,0,0,0,0,0,-4.6608,-4.6615,-4.6639,-4.6609,-4.6607,-4.65,-4.6526,-4.6503,-4.6508,-4.6415,-4.6393,-4.6426,-4.6333,-4.6334,-4.6435,-4.6547,-4.6304,-4.6308,-4.6702,-4.6715,-4.6726,-4.6979,0,0,0,0,0,0,-4.6608,-4.6616,-4.6684,-4.6612,-4.661,-4.6734,-4.6532,-4.6507,-4.6516,-4.6493,-4.6434,-4.6417,-4.6327,-4.6429,-4.644,-4.6549,-4.6312,-4.6691,-4.6708,-4.6722,-4.696,-4.6998,-4.7031,0,0,0,0,0,-4.6606,-4.6759,-4.6689,-4.6695,-4.6693,-4.674,-4.6739,-4.6631,-4.6526,-4.6595,-4.6535,-4.6419,-4.6534,-4.6442,-4.6451,-4.6564,-4.6684,-4.6703,-4.6721,-4.6944,-4.6991,-4.703,0,0,0,0,0,0,-4.6849,-4.6747,-4.6668,-4.6802,-4.6782,-4.6701,-4.6783,-4.6685,-4.6694,-4.6672,-4.6539,-4.6528,-4.6648,-4.6616,-4.6515,-4.674,-4.6589,-4.6611,-4.6755,-4.6799,-4.6834,-4.6838,-4.6316,0,0,0,0,0,-4.6918,-4.6964,-4.6873,-4.7,-4.6994,-4.6892,-4.6908,-4.6827,-4.68,-4.6791,-4.6738,-4.6719,-4.6749,-4.6773,-4.6797,-4.6955,-4.6939,-4.7037,-4.7073,-4.7103,-4.7122,-4.7203,-4.7245,-4.6793,-4.6792,-4.6792,0,0,-4.7062,-4.7012,-4.7049,-4.7048,-4.7022,-4.7073,-4.6885,-4.6948,-4.6984,-4.6801,-4.6891,-4.6853,-4.6822,-4.6953,-4.7007,-4.693,-4.7244,-4.7127,-4.7151,-4.7154,-4.7227,-4.7269,-4.7308,-4.6805,-4.6803,-4.6801,0,0,-4.7348,-4.7316,-4.7416,-4.7395,-4.7358,-4.7289,-4.7314,-4.7248,-4.7215,-4.7304,-4.7167,-4.721,-4.7267,-4.725,-4.725,-4.7532,-4.7426,-4.7544,-4.7729,-4.781,-4.7845,-4.7876,-4.7975,-4.8013,-4.7564,-4.7565,-4.7566,0,-4.7531,-4.76,-4.7482,-4.7552,-4.7556,-4.7392,-4.7494,-4.7479,-4.7453,-4.746,-4.7374,-4.7441,-4.741,-4.7533,-4.7602,-4.7608,-4.7632,-4.7549,-4.7849,-4.7879,-4.7906,-4.7999,-4.8037,-4.758,-4.7578,-4.7576,-4.7575,0,-4.7826,-4.7877,-4.7964,-4.7941,-4.7955,-4.8042,-4.7937,-4.7966,-4.7885,-4.7826,-4.7919,-4.7876,-4.7887,-4.7911,-4.7833,-4.8024,-4.7977,-4.7873,-4.7718,-4.7966,-4.8051,-4.8086,-4.76,-4.7595,-4.7591,-4.7587,0,0,-4.8261,-4.8172,-4.8205,-4.8192,-4.814,-4.8178,-4.8259,-4.8268,-4.8295,-4.8284,-4.8348,-4.8401,-4.8303,-4.8303,-4.8222,-4.8293,-4.8518,-4.8179,-4.8176,-4.8242,-4.8725,-4.8802,-4.8845,-4.8448,-4.8455,-4.846,-4.8727,0,-4.853,-4.8659,-4.8555,-4.8704,-4.8749,-4.8595,-4.8664,-4.8641,-4.8589,-4.8622,-4.8564,-4.8603,-4.8473,-4.8471,-4.8535,-4.8477,-4.8613,-4.8457,-4.8506,-4.8509,-4.8516,-4.889,-4.8971,-4.9224,-4.8759,-4.8765,-4.8769,0,-4.8861,-4.8862,-4.9015,-4.8953,-4.8968,-4.9032,-4.9032,-4.9066,-4.9037,-4.8994,-4.8995,-4.8895,-4.8971,-4.8823,-4.8925,-4.8821,-4.8836,-4.8812,-4.8819,-4.8817,-4.8652,-4.8896,-4.9303,-4.934,-4.8821,-4.8817,-4.8813,0,-4.916,-4.9201,-4.9296,-4.9291,-4.9221,-4.927,-4.9244,-4.9207,-4.922,-4.9222,-4.9229,-4.9242,-4.9248,-4.926,-4.9167,-4.9068,-4.9282,-4.9126,-4.9248,-4.9251,-4.9297,-4.9295,-4.971,-4.9313,-4.9312,-4.9311,-4.9311,0,-4.9469,-4.9568,-4.9429,-4.9488,-4.9595,-4.9477,-4.9586,-4.9544,-4.9513,-4.9562,-4.9432,-4.9481,-4.9356,-4.9393,-4.9322,-4.9417,-4.9422,-4.939,-4.9369,-4.9399,-4.9404,-4.9405,-4.9384,-4.9321,-4.9319,-4.9317,-4.9316,0,-4.9819,-4.973,-4.9824,-4.9751,-4.9735,-4.9817,-4.9755,-4.9807,-4.9747,-4.9811,-4.982,-4.9727,-4.9763,-4.9672,-4.9697,-4.9648,-4.9785,-4.9737,-4.9794,-4.9778,-4.9905,-4.9894,-5.0333,-5.0384,-4.9958,-4.9962,-4.9965,0,-5.0021,-5.0093,-5.0028,-5.005,-5.003,-5.0069,-5.0081,-4.9969,-4.9987,-4.9961,-5.0017,-5.0043,-5.0057,-5.0124,-5.0059,-5.0077,-5.0027,-5.0181,-5.0029,-5.0058,-5.0027,-5.0023,-5.0029,-5.0211,-5.0216,-5.0221,-5.0224,0,-5.0388,-5.0341,-5.0361,-5.0368,-5.0386,-5.0386,-5.0377,-5.0404,-5.0285,-5.0312,-5.0347,-5.0359,-5.0383,-5.041,-5.0414,-5.0389,-5.0288,-5.0273,-5.0301,-5.0332,-5.0361,-5.0345,-4.9876,-5.0262,-5.0258,-5.0256,-5.0254,-5.0252,-5.0667,-5.0724,-5.0686,-5.0715,-5.0696,-5.0692,-5.0737,-5.0682,-5.0709,-5.0718,-5.0652,-5.0702,-5.0673,-5.0667,-5.0653,-5.0691,-5.0622,-5.0664,-5.0674,-5.0686,-5.0706,-5.0358,-5.0692,-5.0691,-5.069,-5.0689,-5.0688,0,-5.1025,-5.0994,-5.1021,-5.1012,-5.1035,-5.0937,-5.0923,-5.0949,-5.0994,-5.0975,-5.0991,-5.1033,-5.1059,-5.0998,-5.1015,-5.1058,-5.1012,-5.1066,-5.106,-5.1056,-5.0768,-5.074,-5.1103,-5.1103,-5.1103,-5.1102,-5.1102,-5.1102,-5.1213,-5.1303,-5.1252,-5.1332,-5.13,-5.1346,-5.1347,-5.1342,-5.1326,-5.1377,-5.1398,-5.1357,-5.1322,-5.1336,-5.1356,-5.1338,-5.1349,-5.1419,-5.1385,-5.1117,-5.1076,-5.1037,-5.101,-5.1424,-5.1424,-5.1668,-5.1671,-5.1673]},{"header":{"parameterUnit":"m.s-1","parameterCategory":1,"la1":30.2991,"la2":30.254,"lo1":-89.0895,"lo2":-89.0444,"dy":0.0017,"dx":0.0017,"nx":28,"ny":28,"refTime":"2025-06-02T03:00:00:Z","depth":0,"parameterNumber":3,"parameterNumberName":"V-component_of_WINDS"},"data":[0,0,0,0,0,0,0,0,0,0,0,0,0,0,0,0,0,0,0,0,0,0,0,0,0,0,0,0,0,0,0,0,0,0,0,0,0,0,0,0,0,0,0,0,0,0,0,0,0,0,0,0,0,0,0,0,0,0,-0.3088,-0.3089,0,-0.3201,-0.3203,-0.3204,-0.3321,-0.3323,-0.3325,-0.3326,-0.3439,-0.3441,-0.3442,0,0,0,0,0,0,0,0,0,0,0,0,0,-0.2971,-0.2972,-0.3088,-0.309,-0.3091,-0.3201,-0.3203,-0.3204,-0.3321,-0.3323,-0.3325,-0.3327,-0.3439,-0.344,-0.3442,0,0,0,0,0,0,0,0,0,0,0,0,0,-0.3046,-0.2973,-0.3088,-0.3163,-0.317,-0.3201,-0.3203,-0.3205,-0.3321,-0.3323,-0.3326,-0.3328,-0.3438,-0.344,-0.3443,-0.3407,0,0,-0.3449,-0.345,0,0,0,0,0,0,0,0,-0.3042,-0.305,-0.315,-0.3158,-0.3166,-0.325,-0.3203,-0.3272,-0.332,-0.3264,-0.3326,-0.3329,-0.3374,-0.3382,-0.3398,-0.3413,-0.3418,-0.345,-0.3451,-0.3452,-0.3453,0,0,0,0,0,0,0,-0.3036,-0.3046,-0.3133,-0.3151,-0.3161,-0.319,-0.3203,-0.3217,-0.3304,-0.3269,-0.3278,-0.3289,-0.3379,-0.3395,-0.3401,-0.3419,-0.3449,-0.3451,-0.3453,-0.3454,-0.341,-0.3408,0,0,0,0,0,0,-0.302,-0.3041,-0.3129,-0.3136,-0.3109,-0.319,-0.3205,-0.322,-0.3304,-0.3319,-0.3287,-0.3294,-0.339,-0.3398,-0.3405,-0.3369,-0.3452,-0.3454,-0.3455,-0.3413,-0.341,-0.3407,0,0,0,0,0,0,-0.3017,-0.3027,-0.3125,-0.3091,-0.3106,-0.3189,-0.3206,-0.3221,-0.3238,-0.3318,-0.3334,-0.3288,-0.3392,-0.3402,-0.3406,-0.3375,-0.3455,-0.3457,-0.3416,-0.3412,-0.3409,-0.3296,0,0,0,0,0,0,-0.3013,-0.3025,-0.3013,-0.309,-0.3107,-0.3124,-0.3204,-0.3222,-0.3242,-0.3252,-0.3323,-0.3337,-0.3395,-0.3402,-0.3408,-0.3379,-0.3459,-0.3419,-0.3414,-0.341,-0.3303,-0.3289,-0.3277,0,0,0,0,0,-0.3009,-0.2977,-0.3012,-0.3022,-0.3094,-0.3122,-0.3132,-0.32,-0.3239,-0.3227,-0.3278,-0.3334,-0.3377,-0.3401,-0.3409,-0.3381,-0.3421,-0.3416,-0.341,-0.3309,-0.3292,-0.3278,0,0,0,0,0,0,-0.2894,-0.2988,-0.3028,-0.3021,-0.3062,-0.3142,-0.3129,-0.318,-0.3211,-0.322,-0.3303,-0.3317,-0.3311,-0.3347,-0.3372,-0.3351,-0.3407,-0.3403,-0.3328,-0.3312,-0.3299,-0.3291,-0.3461,0,0,0,0,0,-0.2867,-0.2883,-0.2965,-0.295,-0.2969,-0.3045,-0.306,-0.3109,-0.3155,-0.3173,-0.3225,-0.3267,-0.329,-0.3303,-0.3329,-0.3309,-0.3326,-0.3293,-0.328,-0.3269,-0.3264,-0.3256,-0.3242,-0.3389,-0.3389,-0.3389,0,0,-0.2813,-0.2867,-0.2871,-0.2928,-0.2966,-0.2979,-0.3059,-0.307,-0.308,-0.3175,-0.3181,-0.322,-0.3273,-0.3264,-0.3263,-0.3294,-0.3227,-0.3262,-0.3253,-0.3254,-0.3248,-0.3234,-0.3222,-0.3385,-0.3386,-0.3386,0,0,-0.2721,-0.2764,-0.2756,-0.2792,-0.2849,-0.29,-0.2898,-0.297,-0.3,-0.3008,-0.3079,-0.3092,-0.313,-0.3164,-0.3186,-0.3106,-0.3159,-0.3112,-0.3044,-0.3035,-0.3023,-0.3013,-0.2984,-0.2972,-0.3107,-0.3107,-0.3107,0,-0.2646,-0.267,-0.2745,-0.2751,-0.2773,-0.286,-0.2852,-0.2884,-0.2945,-0.2958,-0.2992,-0.3041,-0.3083,-0.3083,-0.3063,-0.3079,-0.3078,-0.3104,-0.3019,-0.301,-0.3002,-0.2974,-0.2963,-0.3101,-0.3102,-0.3102,-0.3103,0,-0.2574,-0.259,-0.2576,-0.2634,-0.2655,-0.2654,-0.2728,-0.274,-0.2787,-0.2834,-0.284,-0.2893,-0.2931,-0.2934,-0.298,-0.2941,-0.2958,-0.3004,-0.3062,-0.298,-0.2956,-0.2946,-0.3092,-0.3094,-0.3096,-0.3098,0,0,-0.2413,-0.2512,-0.2506,-0.2533,-0.2602,-0.2615,-0.2617,-0.2655,-0.2663,-0.2702,-0.2706,-0.2736,-0.2779,-0.2804,-0.2854,-0.2846,-0.2778,-0.2893,-0.2896,-0.2869,-0.2737,-0.2701,-0.2688,-0.2814,-0.2812,-0.2811,-0.2732,0,-0.2332,-0.2343,-0.241,-0.24,-0.2414,-0.2497,-0.2499,-0.2541,-0.2584,-0.2602,-0.2651,-0.267,-0.2726,-0.2741,-0.2737,-0.2787,-0.2752,-0.2794,-0.2816,-0.2816,-0.28,-0.2675,-0.2638,-0.2561,-0.2723,-0.2722,-0.2721,0,-0.2239,-0.2274,-0.2265,-0.2334,-0.2342,-0.2343,-0.2382,-0.2399,-0.2447,-0.248,-0.2507,-0.2564,-0.257,-0.2625,-0.2634,-0.2661,-0.2674,-0.27,-0.2699,-0.2703,-0.2763,-0.2675,-0.2538,-0.2526,-0.2706,-0.2708,-0.2709,0,-0.2121,-0.2165,-0.2166,-0.2187,-0.2267,-0.2265,-0.2298,-0.235,-0.2367,-0.2401,-0.2414,-0.2447,-0.2466,-0.249,-0.2554,-0.2589,-0.2555,-0.2616,-0.2581,-0.2579,-0.257,-0.2569,-0.2432,-0.2579,-0.258,-0.258,-0.258,0,-0.2023,-0.2014,-0.2114,-0.2114,-0.2106,-0.2183,-0.2173,-0.2215,-0.2259,-0.2268,-0.2342,-0.2348,-0.2433,-0.2449,-0.2499,-0.2498,-0.2506,-0.2532,-0.2545,-0.2525,-0.2521,-0.2534,-0.254,-0.2577,-0.2577,-0.2578,-0.2579,0,-0.1889,-0.1956,-0.1962,-0.2037,-0.2056,-0.2047,-0.2111,-0.2114,-0.2162,-0.2172,-0.2179,-0.2254,-0.2277,-0.2343,-0.2383,-0.2416,-0.24,-0.2426,-0.2384,-0.2392,-0.2353,-0.2355,-0.2219,-0.2204,-0.236,-0.2359,-0.2358,0,-0.1822,-0.1818,-0.1892,-0.1904,-0.1934,-0.1952,-0.1971,-0.2046,-0.2062,-0.2117,-0.2113,-0.2141,-0.2168,-0.22,-0.2257,-0.2287,-0.2314,-0.2264,-0.2319,-0.2298,-0.2312,-0.2311,-0.2311,-0.2251,-0.2249,-0.2248,-0.2246,0,-0.1696,-0.1729,-0.1753,-0.1789,-0.1809,-0.1841,-0.1876,-0.1881,-0.1965,-0.198,-0.2004,-0.2025,-0.2065,-0.2092,-0.2131,-0.2164,-0.2218,-0.2229,-0.2222,-0.2201,-0.2176,-0.2188,-0.235,-0.2231,-0.2233,-0.2234,-0.2235,-0.2235,-0.1593,-0.1592,-0.1645,-0.1669,-0.1704,-0.1736,-0.1742,-0.1791,-0.1812,-0.1851,-0.1894,-0.1913,-0.1962,-0.202,-0.2049,-0.2065,-0.2094,-0.2084,-0.2082,-0.2078,-0.2068,-0.2174,-0.2072,-0.2073,-0.2073,-0.2074,-0.2074,0,-0.1469,-0.1507,-0.1529,-0.1577,-0.1596,-0.1646,-0.1688,-0.17,-0.1716,-0.1757,-0.1782,-0.1809,-0.1835,-0.1895,-0.1927,-0.1927,-0.1953,-0.1933,-0.1933,-0.194,-0.2041,-0.2043,-0.1911,-0.1911,-0.1911,-0.1912,-0.1912,-0.1912,-0.1407,-0.1409,-0.1447,-0.1466,-0.1505,-0.1524,-0.1543,-0.1572,-0.1605,-0.1632,-0.1655,-0.1694,-0.1742,-0.1778,-0.1803,-0.182,-0.1828,-0.18,-0.1824,-0.1917,-0.1933,-0.1947,-0.195,-0.1801,-0.1801,-0.1722,-0.1721,-0.172]}]]